Regional Weather Roundup
Issued by NWS Midland/Odessa, TX

Home | Current Version | Previous Version | Text Only | Print | Product List | Glossary On
Versions: 1 2 3 4 5 6 7 8 9 10 11 12 13 14 15 16 17 18 19 20 21 22 23 24 25 26 27 28 29 30 31 32 33 34 35 36 37 38 39 40 41 42 43 44 45 46 47 48 49 50
000
ASUS44 KMAF 180510
RWRMAF
MIDLAND AREA WEATHER ROUNDUP
NATIONAL WEATHER SERVICE MIDLAND TX
1200 AM CDT FRI AUG 18 2017

...IN SOUTHWEST TEXAS AND SOUTHEAST NEW MEXICO...

CITY           SKY/WX    TMP DP  RH WIND       PRES   REMARKS
ALPINE         CLOUDY    67  60  75 W3        30.26R
ANDREWS        FAIR      75  64  70 S9        30.13F
ARTESIA        CLEAR     77  63  61 SE12      30.10S
BIG SPRING     MOCLDY    73  68  83 CALM      30.13S
CARLSBAD       CLEAR     75  64  68 SE7       30.08R
DRYDEN           N/A     79  66  64 NE10      30.06R
FORT STOCKTON  CLOUDY    77  64  64 SE9       30.11S
GUAD PASS      CLEAR     69  59  70 NE24      30.25F
HOBBS          CLOUDY    72  61  68 S7        30.14F
MARFA          CLEAR     64  62  93 N7        30.24R
MIDLAND AIRPK  CLOUDY    78  65  64 SE12      30.10F
MIDLAND INTL   CLOUDY    77  66  68 S13       30.10F
ODESSA         CLOUDY    76  66  71 S12       30.12F
PECOS          PTCLDY    79  61  54 SE12      30.06F
PRESIDIO       FAIR      74  67  80 CALM      30.10S
SEMINOLE       MOCLDY    75  65  73 S9        30.15S
SNYDER         PTCLDY    73  67  82 S8        30.10F
WINK           CLOUDY    77  66  68 E12       30.08F
$$
...OTHER STATIONS IN TEXAS...

CITY           SKY/WX    TMP DP  RH WIND       PRES   REMARKS
ABILENE        PTCLDY    73  68  84 S8        30.06F
AMARILLO       CLOUDY    73  65  75 S16       30.10F
AUSTIN         PTCLDY    83  74  74 S8        30.02R
BROWNSVILLE    CLEAR     81  80  97 SE6       30.03R
CORPUS CHRISTI PTCLDY    81  78  91 SE8       30.02S
DALLAS FTW     CLOUDY    78  71  79 CALM      29.98S
DEL RIO        CLOUDY    88  62  41 E10       29.97R
EL PASO        PTCLDY    83  56  39 SE14G22   30.08R
HOUSTON INT    CLEAR     83  75  77 SW5       30.03R
LUBBOCK        PTCLDY    75  64  68 S13       30.12S
SAN ANGELO     PTCLDY    75  67  76 SW7       30.07F
SAN ANTONIO    CLEAR     82  72  71 SE10      30.05R
WACO           CLOUDY    76  70  82 CALM      29.99R
WICHITA FALLS  NOT AVBL
$$
...OTHER LOCATIONS IN NEW MEXICO...

CITY           SKY/WX    TMP DP  RH WIND       PRES   REMARKS
ALAMOGORDO     CLEAR     75  45  33 CALM      30.10S
ALBUQUERQUE    PTCLDY    78  36  21 E5        30.17S
CANNON AFB     CLEAR     70  70 100 S10       30.17S
CLOVIS         CLEAR     70  63  78 S12       30.16F
HOLLOMAN AFB   CLEAR     78  47  32 E5        30.10S
ROSWELL        CLEAR     79  62  56 S15       30.10R
RUIDOSO        CLEAR     64  46  52 CALM      30.34F
SANTA FE       CLEAR     63  41  44 NE8       30.24F
TRUTH OR CONSE CLEAR     80  41  24 W7        30.13R
TUCUMCARI      PTCLDY    77  62  59 S10       30.08S
$$



USA.gov is the U.S. government's official web portal to all federal, state and local government web resources and services.